User: anonymous   Login
Location: Lugrin
(46.4033°N, 6.6674°E)
Time: 00:34:49
(UTC+00:00)
Language:

Okean 1 Rocket - Orbit

View from above orbital plane
View from above orbital plane
View from above satellite
View from above satellite

Ground track
Ground track

The orbit data is extracted from the following two-line orbital elements,

1 19275U 88056B   20336.24044377  .00000154  00000-0  16092-4 0  9998
2 19275  82.5175 228.8726 0020338  10.5560 349.6077 14.82767340750417
Epoch (UTC): 01 December 2020 05:46:14
Eccentricity: 0.0020338
inclination: 82.5175°
perigee height: 606 km
apogee height: 635 km
right ascension of ascending node: 228.8726°
argument of perigee: 10.5560°
revolutions per day: 14.82767340
mean anomaly at epoch: 349.6077°
orbit number at epoch: 75041

The dashed part of the orbit path shows where the satellite is in the earth's shadow,  

DLR